Weather History for Cape Lisburne, AK

Change the Weather History Date:

Thursday, December 6, 2012

  Actual Average Record
Temperature  
Mean Temperature 6 °F -  
Max Temperature 8 °F 5 °F 39 °F (2013)
Min Temperature 4 °F -1 °F -13 °F (2005)
Degree Days  
Heating Degree Days 59    
Moisture  
Dew Point 3 °F    
Average Humidity 89    
Maximum Humidity 100    
Minimum Humidity 82    
Precipitation  
Precipitation 0.00 in - - ()
Sea Level Pressure  
Sea Level Pressure 30.55 in    
Wind  
Wind Speed - (North)    
Max Wind Speed -    
Max Gust Speed -    
Visibility 9 miles    
Events Snow    
Averages and records for this station are not official NWS values.
T = Trace of Precipitation, MM = Missing Value Source: NWS Daily Summary

Daily Weather History Graph

Daily Weather History Graph

Search for Another Location

Airport:

Trip Planner

Search our weather history database for the weather conditions in past years. The results will help you decide how hot, cold, wet, or windy it might be!

Date:

Astronomy

Dec. 06, 2012 Rise Set
Actual Time 1:23 PM AKST 2:28 PM AKST
Civil Twilight 11:15 AM AKST 4:36 PM AKST
Nautical Twilight 9:43 AM AKST 6:07 PM AKST
Astronomical Twilight 8:30 AM AKST 7:21 PM AKST
Moon 1:25 AM AKST (12/6) 2:09 PM AKST (12/6)
Length of Visible Light 5h 21m
Length of Day
1h 04m
Waning Gibbous, 48% of the Moon is Illuminated
Dec 6
Waning Gibbous
Dec 12
New
Dec 19
First Quarter
Dec 28
Full
Jan 4
Last Quarter

Hourly Weather History & Observations

Time (AKST) Temp. Dew Point Humidity Pressure Visibility Wind Dir Wind Speed Gust Speed Precip Events Conditions
12:35 AM 6.8 °F 3.2 °F 85% 30.53 in 10.0 mi North - - N/A   Overcast
12:55 AM 6.6 °F 2.7 °F 84% 30.53 in 10.0 mi North - - N/A Snow Light Snow Showers
1:55 AM 7.3 °F 3.7 °F 85% 30.53 in 10.0 mi North - - N/A   Overcast
3:35 AM 8.6 °F 5.0 °F 85% 30.53 in 10.0 mi North - - N/A   Overcast
3:55 AM 8.1 °F 4.6 °F 86% 30.54 in 10.0 mi North - - N/A   Overcast
4:15 AM 8.6 °F 5.0 °F 85% 30.54 in 10.0 mi North - - N/A   Overcast
4:55 AM 7.3 °F 4.5 °F 88% 30.54 in 10.0 mi North - - N/A Snow Light Snow Showers
5:55 AM 5.7 °F 2.3 °F 86% 30.55 in 10.0 mi North - - N/A   Overcast
6:16 AM 5.0 °F 1.4 °F 85% 30.55 in 10.0 mi North - - N/A   Mostly Cloudy
6:36 AM 5.0 °F 1.4 °F 85% 30.54 in 10.0 mi North - - N/A Snow Light Snow
6:55 AM 5.4 °F 1.6 °F 84% 30.55 in 10.0 mi North - - N/A Snow Light Snow Showers
7:55 AM 5.7 °F 2.1 °F 85% 30.56 in 10.0 mi North - - N/A Snow Light Snow Showers
8:16 AM 5.0 °F 1.4 °F 85% 30.56 in 10.0 mi North - - N/A   Overcast
8:55 AM 5.5 °F 1.2 °F 82% 30.56 in 10.0 mi North - - N/A   Overcast
9:55 AM 6.1 °F 1.9 °F 83% 30.57 in 10.0 mi North - - N/A   Overcast
10:55 AM 6.4 °F 3.4 °F 87% 30.57 in 10.0 mi North - - N/A   Overcast
11:36 AM 6.8 °F 5.0 °F 92% 30.58 in 10.0 mi North - - N/A   Overcast
11:55 AM 7.5 °F 4.5 °F 87% 30.57 in 10.0 mi North - - N/A   Overcast
12:55 PM 7.0 °F 4.1 °F 88% 30.56 in 10.0 mi North - - N/A Snow Light Snow
1:16 PM 6.8 °F 3.2 °F 85% 30.57 in 2.5 mi North - - N/A Snow Light Snow
1:36 PM 6.8 °F 3.2 °F 85% 30.56 in 3.0 mi North - - N/A Snow Light Snow
1:55 PM 6.3 °F 3.2 °F 87% 30.56 in 10.0 mi North - - N/A Snow Light Snow
2:36 PM 6.8 °F 3.2 °F 85% 30.56 in 3.0 mi North - - N/A Snow Light Snow
2:55 PM - - N/A% - 3.0 mi North - - N/A   Unknown
3:16 PM 6.8 °F 5.0 °F 92% 30.56 in 2.0 mi North - - N/A Snow Light Snow
3:36 PM 6.8 °F 5.0 °F 92% 30.55 in 6.0 mi North - - N/A Snow Light Snow
3:55 PM 5.7 °F 3.9 °F 92% 30.55 in 8.0 mi North - - N/A Snow Light Snow
4:36 PM 5.0 °F 3.2 °F 92% 30.54 in 10.0 mi North - - N/A   Mostly Cloudy
4:55 PM 5.4 °F 3.6 °F 92% 30.54 in 10.0 mi North - - N/A   Mostly Cloudy
4:56 PM 5.0 °F 3.2 °F 92% 30.54 in 10.0 mi North - - N/A   Mostly Cloudy
5:16 PM 5.0 °F 3.2 °F 92% 30.54 in 10.0 mi North - - N/A   Overcast
5:36 PM 5.0 °F 3.2 °F 92% 30.54 in 10.0 mi North - - N/A   Overcast
5:55 PM 5.5 °F 3.9 °F 93% 30.54 in 10.0 mi North - - N/A Snow Light Snow Showers
6:16 PM 5.0 °F 3.2 °F 92% 30.54 in 10.0 mi North - - N/A   Overcast
6:36 PM 5.0 °F 5.0 °F 100% 30.55 in 10.0 mi North - - N/A   Overcast
6:55 PM 5.7 °F 4.1 °F 93% 30.55 in 10.0 mi North - - N/A   Overcast
7:16 PM 6.8 °F 5.0 °F 92% 30.55 in 10.0 mi North - - N/A Snow Light Snow Showers
7:55 PM 5.7 °F 3.9 °F 92% 30.54 in 10.0 mi North - - N/A Snow Light Snow Showers
7:56 PM 5.0 °F 3.2 °F 92% 30.54 in 10.0 mi North - - N/A Snow Light Snow Showers
8:36 PM 6.8 °F 5.0 °F 92% 30.53 in 10.0 mi North - - N/A   Overcast
8:55 PM 6.1 °F 4.3 °F 92% 30.53 in 10.0 mi North - - N/A Snow Light Snow Showers
8:56 PM 6.8 °F 5.0 °F 92% 30.53 in 10.0 mi North - - N/A Snow Light Snow Showers
9:16 PM 5.0 °F 3.2 °F 92% 30.53 in 10.0 mi North - - N/A   Overcast
9:36 PM 5.0 °F 3.2 °F 92% 30.53 in 10.0 mi North - - N/A Snow Light Snow Showers
9:55 PM 5.7 °F 3.6 °F 91% 30.53 in 10.0 mi North - - N/A Snow Light Snow Showers
10:55 PM 4.8 °F 2.1 °F 89% 30.53 in 10.0 mi North - - N/A   Overcast
11:16 PM 5.0 °F 3.2 °F 92% 30.53 in 10.0 mi North - - N/A Snow Light Snow Showers
11:36 PM 5.0 °F 1.4 °F 85% 30.53 in 10.0 mi North - - N/A   Overcast
11:55 PM 4.6 °F 1.2 °F 86% 30.53 in 10.0 mi North - - N/A Snow Light Snow Showers